Гольмовский

Украина / Донецкая область     48°24′01″N   38°04′47″E
темп.,
°C
ветер,
м/с
пор.,
м/с
влажн.,
%
обл.,
%
осадки,
мм/ч
давл.,
гПа
погр.,
м
13 июня, вс
вс1300:00+15юз22890 0.0 101121
03:00+14юз22920 0.0 101124
06:00+15зюз24910 0.0 1010131
09:00+20зюз23740 0.0 1011635
12:00+23зюз33561 0.4 10101529
15:00+25зюз345226 0.6 10101763
18:00+21зюз357087 0.1 1010223
21:00+18ююз22744 0.1 101111
14 июня, пн
пн1400:00+16ююв22791 0.0 101114
03:00+15ю228410 0.0 101213
06:00+17юв128123 0.0 101267
09:00+22юв236154 0.0 1013650
12:00+25юв2352100 0.0 10131700
15:00+26юв2248100 0.0 10132079
18:00+24всв346565 0.0 1012301
21:00+20всв226874 0.0 101230
15 июня, вт
вт1500:00+20св1270100 0.0 101214
03:00+19всв2373100 0.0 101259
06:00+19всв2581100 0.0 1012120
09:00+21св237319 0.2 1011338
12:00+26всв3349100 0.0 10111746
15:00+25вюв235498 0.0 10101470
18:00+24вюв3466100 0.3 1009362
21:00+20вюв1178100 1.6 101011
16 июня, ср
ср1600:00+18вюв228845 0.2 100916
03:00+17в22910 0.2 100923
06:00+18в128977 0.2 101069
09:00+21св3378100 0.2 1010477
12:00+21ссв3684100 0.9 1009272
15:00+18св3694100 13.8 1011361
18:00+19всв4789100 4.6 1010373
21:00+17вюв3994100 8.5 1011252
17 июня, чт
чт1700:00+17ююв259585 0.1 1010211
03:00+14ююз239710 0.2 101165
06:00+15ююв11930 0.0 101288
09:00+20в117372 0.0 1013616
12:00+23всв3361100 0.0 10131179
15:00+24в1255100 0.0 10131389
18:00+23зсз2269100 0.0 101327
21:00+18сз4899100 14.3 1013273